Location: Campillo
(40.8621°N, 4.2488°W)
Time: 11:58:41
(UTC+00:00)

Cosmos 1833 Rocket - Pass Details

Date: 11 May 2021
Orbit: 831 x 841 km, 71.0° (Epoch: 13 June)

Event Time Altitude Azimuth Distance (km) Brightness Sun altitude
Rises 20:56:11 0° 342° (NNW) 3,404 6.9 -15.4°
Reaches altitude 10° 20:58:47 10° 350° (N) 2,466 5.9 -15.8°
Maximum altitude 21:04:07 41° 60° (ENE) 1,200 3.3 -16.5°
Enters shadow 21:06:49 25° 113° (ESE) 1,623 3.6 -16.9°
